Time,TemperatureF,DewpointF,PressureIn,WindDirection,WindDirectionDegrees,WindSpeedMPH,WindSpeedGustMPH,Humidity,HourlyPrecipIn,Conditions,Clouds,dailyrainin,SoftwareType,DateUTC
2013-09-27 00:00:00,51.1,49.4,30.12,NE,45,0.0,0.0,94,0.00,,---,0.00,VWS V14.01,2013-09-27 04:00:00,
2013-09-27 00:01:00,51.1,49.4,30.12,NE,45,0.0,0.0,94,0.00,,---,0.00,VWS V14.01,2013-09-27 04:01:00,
2013-09-27 00:02:00,51.1,49.4,30.12,NE,45,0.0,0.0,94,0.00,,---,0.00,VWS V14.01,2013-09-27 04:02:00,
2013-09-27 00:07:00,51.1,49.4,30.12,NE,45,0.0,0.0,94,0.00,,---,0.00,VWS V14.01,2013-09-27 04:07:00,
2013-09-27 00:12:00,50.9,49.2,30.15,NE,45,0.0,0.0,94,0.00,,---,0.00,VWS V14.01,2013-09-27 04:12:00,
2013-09-27 00:17:00,50.9,49.2,30.15,NE,45,0.0,0.0,94,0.00,,---,0.00,VWS V14.01,2013-09-27 04:17:00,
2013-09-27 00:22:00,50.9,49.2,30.15,NE,45,0.0,0.0,94,0.00,,---,0.00,VWS V14.01,2013-09-27 04:22:00,
2013-09-27 00:27:00,50.9,49.2,30.12,NE,45,0.0,0.0,94,0.00,,---,0.00,VWS V14.01,2013-09-27 04:27:00,
2013-09-27 00:32:00,51.1,49.4,30.12,NE,45,0.0,0.0,94,0.00,,---,0.00,VWS V14.01,2013-09-27 04:32:00,
2013-09-27 00:37:00,51.1,49.4,30.12,NE,45,0.0,0.0,94,0.00,,---,0.00,VWS V14.01,2013-09-27 04:37:00,
2013-09-27 00:42:00,51.3,49.6,30.15,NE,45,0.0,0.0,94,0.00,,---,0.00,VWS V14.01,2013-09-27 04:42:00,
2013-09-27 00:47:00,51.3,49.9,30.15,NE,45,0.0,0.0,95,0.00,,---,0.00,VWS V14.01,2013-09-27 04:47:00,
2013-09-27 00:52:00,51.3,49.9,30.15,NE,45,0.0,0.0,95,0.00,,---,0.00,VWS V14.01,2013-09-27 04:52:00,
2013-09-27 00:57:00,51.3,49.9,30.12,NE,45,0.0,0.0,95,0.00,,---,0.00,VWS V14.01,2013-09-27 04:57:00,
2013-09-27 01:02:00,51.4,50.1,30.12,NE,45,0.0,0.0,95,0.00,,---,0.00,VWS V14.01,2013-09-27 05:02:00,
2013-09-27 01:07:00,51.4,50.1,30.12,NE,45,0.0,0.0,95,0.00,,---,0.00,VWS V14.01,2013-09-27 05:07:00,
2013-09-27 01:12:00,51.4,49.8,30.12,NE,45,0.0,0.0,94,0.00,,---,0.00,VWS V14.01,2013-09-27 05:12:00,
2013-09-27 01:17:00,51.6,50.2,30.12,NE,45,0.0,0.0,95,0.00,,---,0.00,VWS V14.01,2013-09-27 05:17:00,
2013-09-27 01:22:00,51.6,50.2,30.12,NE,45,0.0,0.0,95,0.00,,---,0.00,VWS V14.01,2013-09-27 05:22:00,
2013-09-27 01:27:00,51.6,50.0,30.12,NE,45,0.0,0.0,94,0.00,,---,0.00,VWS V14.01,2013-09-27 05:27:00,
2013-09-27 01:32:00,51.8,50.1,30.12,NE,45,0.0,0.0,94,0.00,,---,0.00,VWS V14.01,2013-09-27 05:32:00,
2013-09-27 01:37:00,51.8,50.1,30.12,NE,45,0.0,0.0,94,0.00,,---,0.00,VWS V14.01,2013-09-27 05:37:00,
2013-09-27 01:42:00,51.6,50.0,30.12,NE,45,0.0,0.0,94,0.00,,---,0.00,VWS V14.01,2013-09-27 05:42:00,
2013-09-27 01:47:00,51.6,50.0,30.12,NE,45,0.0,0.0,94,0.00,,---,0.00,VWS V14.01,2013-09-27 05:47:00,
2013-09-27 01:52:00,51.6,50.0,30.12,NE,45,0.0,0.0,94,0.00,,---,0.00,VWS V14.01,2013-09-27 05:52:00,
2013-09-27 01:57:00,51.8,50.1,30.12,NE,45,0.0,0.0,94,0.00,,---,0.00,VWS V14.01,2013-09-27 05:57:00,
2013-09-27 02:02:00,51.6,50.0,30.12,NE,45,0.0,0.0,94,0.00,,---,0.00,VWS V14.01,2013-09-27 06:02:00,
2013-09-27 02:07:00,51.6,50.0,30.12,NE,45,0.0,0.0,94,0.00,,---,0.00,VWS V14.01,2013-09-27 06:07:00,
2013-09-27 02:12:00,51.6,50.0,30.15,NE,45,0.0,0.0,94,0.00,,---,0.00,VWS V14.01,2013-09-27 06:12:00,
2013-09-27 02:17:00,51.4,49.8,30.15,NE,45,0.0,0.0,94,0.00,,---,0.00,VWS V14.01,2013-09-27 06:17:00,
2013-09-27 02:22:00,51.3,49.6,30.15,NE,45,0.0,0.0,94,0.00,,---,0.00,VWS V14.01,2013-09-27 06:22:00,
2013-09-27 02:27:00,51.1,49.4,30.15,NE,45,0.0,0.0,94,0.00,,---,0.00,VWS V14.01,2013-09-27 06:27:00,
2013-09-27 02:32:00,50.9,49.2,30.15,NE,45,0.0,0.0,94,0.00,,---,0.00,VWS V14.01,2013-09-27 06:32:00,
2013-09-27 02:37:00,51.1,49.4,30.15,NE,45,0.0,0.0,94,0.00,,---,0.00,VWS V14.01,2013-09-27 06:37:00,
2013-09-27 02:42:00,51.1,49.4,30.12,NNE,22,0.0,0.0,94,0.00,,---,0.00,VWS V14.01,2013-09-27 06:42:00,
2013-09-27 02:47:00,51.4,49.8,30.12,ESE,112,0.0,0.0,94,0.00,,---,0.00,VWS V14.01,2013-09-27 06:47:00,
2013-09-27 02:52:00,51.6,50.0,30.12,SE,135,0.0,0.0,94,0.00,,---,0.00,VWS V14.01,2013-09-27 06:52:00,
2013-09-27 02:57:00,51.6,50.0,30.15,SE,135,0.0,0.0,94,0.00,,---,0.00,VWS V14.01,2013-09-27 06:57:00,
2013-09-27 03:02:00,52.0,50.3,30.15,SE,135,0.0,2.2,94,0.00,,---,0.00,VWS V14.01,2013-09-27 07:02:00,
2013-09-27 03:07:00,52.0,50.3,30.15,SE,135,0.0,2.2,94,0.00,,---,0.00,VWS V14.01,2013-09-27 07:07:00,
2013-09-27 03:12:00,52.2,50.5,30.15,South,180,0.0,2.2,94,0.00,,---,0.00,VWS V14.01,2013-09-27 07:12:00,
2013-09-27 03:17:00,52.2,50.5,30.15,South,180,0.0,2.2,94,0.00,,---,0.00,VWS V14.01,2013-09-27 07:17:00,
2013-09-27 03:22:00,52.0,50.3,30.15,South,180,0.0,2.2,94,0.00,,---,0.00,VWS V14.01,2013-09-27 07:22:00,
2013-09-27 03:27:00,51.8,50.1,30.15,South,180,0.0,2.2,94,0.00,,---,0.00,VWS V14.01,2013-09-27 07:27:00,
2013-09-27 03:32:00,51.8,50.1,30.15,SE,135,0.0,2.2,94,0.00,,---,0.00,VWS V14.01,2013-09-27 07:32:00,
2013-09-27 03:37:00,51.8,50.1,30.15,SSE,158,0.0,2.2,94,0.00,,---,0.00,VWS V14.01,2013-09-27 07:37:00,
2013-09-27 03:42:00,51.8,50.1,30.15,South,180,0.0,2.2,94,0.00,,---,0.00,VWS V14.01,2013-09-27 07:42:00,
2013-09-27 03:47:00,51.6,50.0,30.15,South,180,0.0,2.2,94,0.00,,---,0.00,VWS V14.01,2013-09-27 07:47:00,
2013-09-27 03:49:00,51.6,50.0,30.15,South,180,0.0,2.2,94,0.00,,---,0.00,VWS V14.01,2013-09-27 07:49:00,
2013-09-27 03:54:00,51.6,50.0,30.15,South,180,0.0,2.2,94,0.00,,---,0.00,VWS V14.01,2013-09-27 07:54:00,
2013-09-27 03:59:00,51.6,50.0,30.15,South,180,0.0,2.2,94,0.00,,---,0.00,VWS V14.01,2013-09-27 07:59:00,
2013-09-27 04:04:00,51.6,50.0,30.15,South,180,0.0,0.0,94,0.00,,---,0.00,VWS V14.01,2013-09-27 08:04:00,
2013-09-27 04:09:00,52.3,50.7,30.15,NW,315,0.0,3.1,94,0.00,,---,0.00,VWS V14.01,2013-09-27 08:09:00,
2013-09-27 04:14:00,51.8,50.1,30.15,NW,315,0.0,3.1,94,0.00,,---,0.00,VWS V14.01,2013-09-27 08:14:00,
2013-09-27 04:19:00,51.6,50.0,30.15,NW,315,0.0,3.1,94,0.00,,---,0.00,VWS V14.01,2013-09-27 08:19:00,
2013-09-27 04:24:00,51.3,49.6,30.15,NW,315,0.0,3.1,94,0.00,,---,0.00,VWS V14.01,2013-09-27 08:24:00,
2013-09-27 04:29:00,50.7,49.1,30.15,NW,315,0.0,3.1,94,0.00,,---,0.00,VWS V14.01,2013-09-27 08:29:00,
2013-09-27 04:34:00,50.2,48.5,30.15,NW,315,0.0,3.1,94,0.00,,---,0.00,VWS V14.01,2013-09-27 08:34:00,
2013-09-27 04:39:00,49.8,48.5,30.15,NW,315,0.0,3.1,95,0.00,,---,0.00,VWS V14.01,2013-09-27 08:39:00,
2013-09-27 04:44:00,49.5,47.8,30.15,NW,315,0.0,3.1,94,0.00,,---,0.00,VWS V14.01,2013-09-27 08:44:00,
2013-09-27 04:49:00,49.1,47.7,30.15,NW,315,0.0,3.1,95,0.00,,---,0.00,VWS V14.01,2013-09-27 08:49:00,
2013-09-27 04:54:00,49.1,47.7,30.15,NW,315,0.0,3.1,95,0.00,,---,0.00,VWS V14.01,2013-09-27 08:54:00,
2013-09-27 04:59:00,48.7,47.4,30.15,NW,315,0.0,3.1,95,0.00,,---,0.00,VWS V14.01,2013-09-27 08:59:00,
2013-09-27 05:04:00,48.6,47.2,30.15,NW,315,0.0,0.0,95,0.00,,---,0.00,VWS V14.01,2013-09-27 09:04:00,
2013-09-27 05:09:00,48.9,47.5,30.15,NW,315,0.0,0.0,95,0.00,,---,0.00,VWS V14.01,2013-09-27 09:09:00,
2013-09-27 05:14:00,48.9,47.5,30.15,NW,315,0.0,0.0,95,0.00,,---,0.00,VWS V14.01,2013-09-27 09:14:00,
2013-09-27 05:19:00,48.9,47.5,30.15,NW,315,0.0,0.0,95,0.00,,---,0.00,VWS V14.01,2013-09-27 09:19:00,
2013-09-27 05:24:00,49.3,47.9,30.15,NW,315,0.0,0.0,95,0.00,,---,0.00,VWS V14.01,2013-09-27 09:24:00,
2013-09-27 05:29:00,49.3,47.9,30.15,NW,315,0.0,0.0,95,0.00,,---,0.00,VWS V14.01,2013-09-27 09:29:00,
2013-09-27 05:34:00,49.3,47.9,30.15,NW,315,0.0,0.0,95,0.00,,---,0.00,VWS V14.01,2013-09-27 09:34:00,
2013-09-27 05:39:00,49.5,48.1,30.18,NW,315,0.0,0.0,95,0.00,,---,0.00,VWS V14.01,2013-09-27 09:39:00,
2013-09-27 05:44:00,49.6,48.3,30.18,NW,315,0.0,0.0,95,0.00,,---,0.00,VWS V14.01,2013-09-27 09:44:00,
2013-09-27 05:49:00,49.8,48.2,30.18,NW,315,0.0,0.0,94,0.00,,---,0.00,VWS V14.01,2013-09-27 09:49:00,
2013-09-27 05:54:00,49.6,48.0,30.18,NNW,338,0.0,0.0,94,0.00,,---,0.00,VWS V14.01,2013-09-27 09:54:00,
2013-09-27 05:59:00,49.3,47.6,30.18,NNW,338,0.0,0.0,94,0.00,,---,0.00,VWS V14.01,2013-09-27 09:59:00,
2013-09-27 06:04:00,49.1,47.7,30.18,NNW,338,0.0,0.0,95,0.00,,---,0.00,VWS V14.01,2013-09-27 10:04:00,
2013-09-27 06:09:00,48.9,47.5,30.15,NNW,338,0.0,0.0,95,0.00,,---,0.00,VWS V14.01,2013-09-27 10:09:00,
2013-09-27 06:14:00,48.7,47.4,30.15,NNW,338,0.0,0.0,95,0.00,,---,0.00,VWS V14.01,2013-09-27 10:14:00,
2013-09-27 06:19:00,48.7,47.4,30.15,NNW,338,0.0,0.0,95,0.00,,---,0.00,VWS V14.01,2013-09-27 10:19:00,
2013-09-27 06:24:00,48.6,46.9,30.18,NNW,338,0.0,0.0,94,0.00,,---,0.00,VWS V14.01,2013-09-27 10:24:00,
2013-09-27 06:29:00,48.6,46.9,30.18,NNW,338,0.0,0.0,94,0.00,,---,0.00,VWS V14.01,2013-09-27 10:29:00,
2013-09-27 06:34:00,48.6,46.9,30.18,NNW,338,0.0,0.0,94,0.00,,---,0.00,VWS V14.01,2013-09-27 10:34:00,
2013-09-27 06:39:00,48.6,46.9,30.18,NNW,338,0.0,0.0,94,0.00,,---,0.00,VWS V14.01,2013-09-27 10:39:00,
2013-09-27 06:44:00,48.6,46.9,30.18,NNW,338,0.0,0.0,94,0.00,,---,0.00,VWS V14.01,2013-09-27 10:44:00,
2013-09-27 06:49:00,48.6,46.9,30.18,NNW,338,0.0,0.0,94,0.00,,---,0.00,VWS V14.01,2013-09-27 10:49:00,
2013-09-27 06:54:00,47.8,46.5,30.18,NNW,338,0.0,0.0,95,0.00,,---,0.00,VWS V14.01,2013-09-27 10:54:00,
2013-09-27 06:59:00,47.7,46.3,30.18,NNW,338,0.0,0.0,95,0.00,,---,0.00,VWS V14.01,2013-09-27 10:59:00,
2013-09-27 07:04:00,47.7,46.3,30.18,NNW,338,0.0,0.0,95,0.00,,---,0.00,VWS V14.01,2013-09-27 11:04:00,
2013-09-27 07:09:00,47.5,46.1,30.18,NNW,338,0.0,0.0,95,0.00,,---,0.00,VWS V14.01,2013-09-27 11:09:00,
2013-09-27 07:14:00,47.5,46.1,30.18,NNW,338,0.0,0.0,95,0.00,,---,0.00,VWS V14.01,2013-09-27 11:14:00,
2013-09-27 07:19:00,47.5,46.1,30.18,NNW,338,0.0,0.0,95,0.00,,---,0.00,VWS V14.01,2013-09-27 11:19:00,
2013-09-27 07:24:00,47.5,46.1,30.18,NNW,338,0.0,0.0,95,0.00,,---,0.00,VWS V14.01,2013-09-27 11:24:00,
2013-09-27 07:29:00,47.3,45.9,30.18,NNW,338,0.0,0.0,95,0.00,,---,0.00,VWS V14.01,2013-09-27 11:29:00,
2013-09-27 07:34:00,47.7,46.3,30.18,NNW,338,0.0,0.0,95,0.00,,---,0.00,VWS V14.01,2013-09-27 11:34:00,
2013-09-27 07:39:00,47.5,46.1,30.18,NNW,338,0.0,0.0,95,0.00,,---,0.00,VWS V14.01,2013-09-27 11:39:00,
2013-09-27 07:44:00,47.8,46.5,30.18,NNW,338,0.0,0.0,95,0.00,,---,0.00,VWS V14.01,2013-09-27 11:44:00,
2013-09-27 07:49:00,47.8,46.5,30.18,NNW,338,0.0,0.0,95,0.00,,---,0.00,VWS V14.01,2013-09-27 11:49:00,
2013-09-27 07:54:00,48.0,46.7,30.21,NNW,338,0.0,0.0,95,0.00,,---,0.00,VWS V14.01,2013-09-27 11:54:00,
2013-09-27 07:59:00,48.2,46.6,30.21,NNW,338,0.0,0.0,94,0.00,,---,0.00,VWS V14.01,2013-09-27 11:59:00,
2013-09-27 08:04:00,48.2,46.6,30.21,NNW,338,0.0,0.0,94,0.00,,---,0.00,VWS V14.01,2013-09-27 12:04:00,
2013-09-27 08:09:00,48.7,47.1,30.18,NNW,338,0.0,0.0,94,0.00,,---,0.00,VWS V14.01,2013-09-27 12:09:00,
2013-09-27 08:14:00,49.6,48.0,30.18,NNW,338,0.0,0.0,94,0.00,,---,0.00,VWS V14.01,2013-09-27 12:14:00,
2013-09-27 08:19:00,50.2,48.5,30.18,NNW,338,0.0,0.0,94,0.00,,---,0.00,VWS V14.01,2013-09-27 12:19:00,
2013-09-27 08:24:00,50.5,48.9,30.21,NNW,338,0.0,0.0,94,0.00,,---,0.00,VWS V14.01,2013-09-27 12:24:00,
2013-09-27 08:29:00,51.4,49.8,30.21,NNW,338,0.0,0.0,94,0.00,,---,0.00,VWS V14.01,2013-09-27 12:29:00,
2013-09-27 08:34:00,52.3,50.4,30.21,NNW,338,0.0,0.0,93,0.00,,---,0.00,VWS V14.01,2013-09-27 12:34:00,
2013-09-27 08:39:00,53.6,51.6,30.21,NNW,338,0.0,0.0,93,0.00,,---,0.00,VWS V14.01,2013-09-27 12:39:00,
2013-09-27 08:44:00,54.5,52.5,30.21,NNW,338,0.0,0.0,93,0.00,,---,0.00,VWS V14.01,2013-09-27 12:44:00,
2013-09-27 08:49:00,55.8,53.5,30.21,NNW,338,0.0,0.0,92,0.00,,---,0.00,VWS V14.01,2013-09-27 12:49:00,
2013-09-27 08:54:00,56.7,54.4,30.21,North,0,0.0,0.0,92,0.00,,---,0.00,VWS V14.01,2013-09-27 12:54:00,
2013-09-27 08:59:00,56.5,54.2,30.21,NE,45,0.0,0.0,92,0.00,,---,0.00,VWS V14.01,2013-09-27 12:59:00,
2013-09-27 09:04:00,57.7,55.4,30.21,SE,135,0.0,2.2,92,0.00,,---,0.00,VWS V14.01,2013-09-27 13:04:00,
2013-09-27 09:09:00,58.1,55.8,30.21,East,90,0.0,3.1,92,0.00,,---,0.00,VWS V14.01,2013-09-27 13:09:00,
2013-09-27 09:14:00,58.6,56.3,30.21,East,90,0.0,3.6,92,0.00,,---,0.00,VWS V14.01,2013-09-27 13:14:00,
2013-09-27 09:19:00,59.2,56.9,30.21,West,270,0.0,3.6,92,0.00,,---,0.00,VWS V14.01,2013-09-27 13:19:00,
2013-09-27 09:24:00,59.7,57.7,30.21,North,0,0.0,3.6,93,0.00,,---,0.00,VWS V14.01,2013-09-27 13:24:00,
2013-09-27 09:29:00,60.3,59.1,30.21,NE,45,0.0,3.6,96,0.00,,---,0.00,VWS V14.01,2013-09-27 13:29:00,
2013-09-27 09:34:00,61.2,60.6,30.21,East,90,0.0,3.6,98,0.00,,---,0.00,VWS V14.01,2013-09-27 13:34:00,
2013-09-27 09:39:00,61.7,61.1,30.21,South,180,3.6,3.6,98,0.00,,---,0.00,VWS V14.01,2013-09-27 13:39:00,
2013-09-27 09:44:00,62.4,61.8,30.21,NNW,338,0.0,3.6,98,0.00,,---,0.00,VWS V14.01,2013-09-27 13:44:00,
2013-09-27 09:49:00,63.5,62.9,30.21,NE,45,0.0,3.6,98,0.00,,---,0.00,VWS V14.01,2013-09-27 13:49:00,
2013-09-27 09:54:00,64.4,63.2,30.21,East,90,0.0,4.5,96,0.00,,---,0.00,VWS V14.01,2013-09-27 13:54:00,
2013-09-27 09:59:00,65.3,62.6,30.21,ESE,112,0.0,4.5,91,0.00,,---,0.00,VWS V14.01,2013-09-27 13:59:00,
2013-09-27 10:04:00,66.0,59.7,30.21,NE,45,0.0,2.7,80,0.00,,---,0.00,VWS V14.01,2013-09-27 14:04:00,
2013-09-27 10:09:00,66.0,53.1,30.24,NE,45,0.0,3.1,63,0.00,,---,0.00,VWS V14.01,2013-09-27 14:09:00,
2013-09-27 10:14:00,66.7,49.1,30.24,SW,225,0.0,4.0,53,0.00,,---,0.00,VWS V14.01,2013-09-27 14:14:00,
2013-09-27 10:19:00,67.3,47.5,30.24,NNE,22,3.6,4.0,49,0.00,,---,0.00,VWS V14.01,2013-09-27 14:19:00,
2013-09-27 10:24:00,67.3,46.4,30.21,North,0,0.0,4.0,47,0.00,,---,0.00,VWS V14.01,2013-09-27 14:24:00,
2013-09-27 10:29:00,67.8,46.3,30.21,ESE,112,0.0,4.0,46,0.00,,---,0.00,VWS V14.01,2013-09-27 14:29:00,
2013-09-27 10:34:00,67.3,45.2,30.21,SE,135,2.7,4.0,45,0.00,,---,0.00,VWS V14.01,2013-09-27 14:34:00,
2013-09-27 10:39:00,68.4,46.8,30.24,South,180,0.0,4.9,46,0.00,,---,0.00,VWS V14.01,2013-09-27 14:39:00,
2013-09-27 10:44:00,67.8,45.7,30.24,NE,45,2.2,4.9,45,0.00,,---,0.00,VWS V14.01,2013-09-27 14:44:00,
2013-09-27 10:49:00,68.7,46.0,30.24,East,90,0.0,4.9,44,0.00,,---,0.00,VWS V14.01,2013-09-27 14:49:00,
2013-09-27 10:54:00,67.5,44.8,30.24,NW,315,4.5,5.8,44,0.00,,---,0.00,VWS V14.01,2013-09-27 14:54:00,
2013-09-27 10:59:00,67.5,44.8,30.24,NNW,338,0.0,5.8,44,0.00,,---,0.00,VWS V14.01,2013-09-27 14:59:00,
2013-09-27 11:04:00,67.5,44.2,30.24,NNE,22,3.1,4.9,43,0.00,,---,0.00,VWS V14.01,2013-09-27 15:04:00,
2013-09-27 11:09:00,68.9,45.5,30.24,SE,135,5.4,5.4,43,0.00,,---,0.00,VWS V14.01,2013-09-27 15:09:00,
2013-09-27 11:14:00,69.3,44.6,30.24,SE,135,2.7,5.4,41,0.00,,---,0.00,VWS V14.01,2013-09-27 15:14:00,
2013-09-27 11:19:00,69.6,44.2,30.24,SE,135,2.7,5.4,40,0.00,,---,0.00,VWS V14.01,2013-09-27 15:19:00,
2013-09-27 11:24:00,69.1,42.4,30.24,North,0,0.0,5.8,38,0.00,,---,0.00,VWS V14.01,2013-09-27 15:24:00,
2013-09-27 11:29:00,69.8,43.1,30.24,South,180,4.0,5.8,38,0.00,,---,0.00,VWS V14.01,2013-09-27 15:29:00,
2013-09-27 11:34:00,70.2,42.7,30.24,NE,45,0.0,5.8,37,0.00,,---,0.00,VWS V14.01,2013-09-27 15:34:00,
2013-09-27 11:39:00,70.9,42.6,30.21,WSW,248,2.7,5.8,36,0.00,,---,0.00,VWS V14.01,2013-09-27 15:39:00,
2013-09-27 11:44:00,71.4,43.1,30.21,NE,45,3.1,5.8,36,0.00,,---,0.00,VWS V14.01,2013-09-27 15:44:00,
2013-09-27 11:49:00,70.7,41.0,30.21,SE,135,3.6,8.1,34,0.00,,---,0.00,VWS V14.01,2013-09-27 15:49:00,
2013-09-27 11:54:00,70.3,39.9,30.24,North,0,0.0,8.1,33,0.00,,---,0.00,VWS V14.01,2013-09-27 15:54:00,
2013-09-27 11:59:00,69.6,40.8,30.24,NW,315,3.6,8.1,35,0.00,,---,0.00,VWS V14.01,2013-09-27 15:59:00,
2013-09-27 12:04:00,69.6,40.8,30.24,East,90,3.1,7.6,35,0.00,,---,0.00,VWS V14.01,2013-09-27 16:04:00,
2013-09-27 12:09:00,69.4,40.6,30.24,North,0,0.0,7.6,35,0.00,,---,0.00,VWS V14.01,2013-09-27 16:09:00,
2013-09-27 12:14:00,69.1,40.3,30.24,North,0,3.1,8.7,35,0.00,,---,0.00,VWS V14.01,2013-09-27 16:14:00,
2013-09-27 12:19:00,68.9,40.9,30.24,ENE,68,3.6,8.7,36,0.00,,---,0.00,VWS V14.01,2013-09-27 16:19:00,
2013-09-27 12:24:00,69.1,41.7,30.24,NW,315,5.8,8.7,37,0.00,,---,0.00,VWS V14.01,2013-09-27 16:24:00,
2013-09-27 12:29:00,68.5,41.3,30.24,NE,45,2.7,8.7,37,0.00,,---,0.00,VWS V14.01,2013-09-27 16:29:00,
2013-09-27 12:34:00,68.7,40.7,30.24,NE,45,4.5,8.7,36,0.00,,---,0.00,VWS V14.01,2013-09-27 16:34:00,
2013-09-27 12:39:00,68.7,41.4,30.24,North,0,3.1,8.7,37,0.00,,---,0.00,VWS V14.01,2013-09-27 16:39:00,
2013-09-27 12:44:00,68.2,40.9,30.24,NNW,338,4.0,8.7,37,0.00,,---,0.00,VWS V14.01,2013-09-27 16:44:00,
2013-09-27 12:49:00,68.0,40.8,30.24,North,0,2.7,8.7,37,0.00,,---,0.00,VWS V14.01,2013-09-27 16:49:00,
2013-09-27 12:54:00,68.9,42.3,30.24,NE,45,0.0,8.7,38,0.00,,---,0.00,VWS V14.01,2013-09-27 16:54:00,
2013-09-27 12:59:00,68.5,42.0,30.24,NE,45,3.6,8.7,38,0.00,,---,0.00,VWS V14.01,2013-09-27 16:59:00,
2013-09-27 13:04:00,68.7,42.1,30.24,NE,45,4.0,7.2,38,0.00,,---,0.00,VWS V14.01,2013-09-27 17:04:00,
2013-09-27 13:09:00,68.7,43.5,30.24,NW,315,0.0,7.2,40,0.00,,---,0.00,VWS V14.01,2013-09-27 17:09:00,
2013-09-27 13:14:00,68.9,42.3,30.24,East,90,3.6,7.6,38,0.00,,---,0.00,VWS V14.01,2013-09-27 17:14:00,
2013-09-27 13:19:00,69.6,44.2,30.24,South,180,4.0,7.6,40,0.00,,---,0.00,VWS V14.01,2013-09-27 17:19:00,
2013-09-27 13:24:00,69.4,43.4,30.24,NNE,22,3.6,7.6,39,0.00,,---,0.00,VWS V14.01,2013-09-27 17:24:00,
2013-09-27 13:26:00,69.3,42.6,30.24,North,0,4.0,7.6,38,0.00,,---,0.00,VWS V14.01,2013-09-27 17:26:00,
2013-09-27 13:31:00,69.1,41.7,30.24,NNE,22,5.4,7.6,37,0.00,,---,0.00,VWS V14.01,2013-09-27 17:31:00,
2013-09-27 13:36:00,69.1,41.7,30.24,NW,315,3.6,7.6,37,0.00,,---,0.00,VWS V14.01,2013-09-27 17:36:00,
2013-09-27 13:41:00,68.5,41.3,30.24,NE,45,4.9,7.6,37,0.00,,---,0.00,VWS V14.01,2013-09-27 17:41:00,
2013-09-27 13:46:00,69.4,44.1,30.24,NNW,338,0.0,7.6,40,0.00,,---,0.00,VWS V14.01,2013-09-27 17:46:00,
2013-09-27 13:51:00,69.6,42.9,30.24,North,0,3.1,7.6,38,0.00,,---,0.00,VWS V14.01,2013-09-27 17:51:00,
2013-09-27 13:56:00,69.6,41.5,30.24,ENE,68,6.3,8.1,36,0.00,,---,0.00,VWS V14.01,2013-09-27 17:56:00,
2013-09-27 14:01:00,69.3,41.2,30.24,NE,45,3.6,6.3,36,0.00,,---,0.00,VWS V14.01,2013-09-27 18:01:00,
2013-09-27 14:06:00,69.4,41.3,30.24,ENE,68,3.6,8.7,36,0.00,,---,0.00,VWS V14.01,2013-09-27 18:06:00,
2013-09-27 14:11:00,69.1,41.0,30.27,SSE,158,4.0,8.7,36,0.00,,---,0.00,VWS V14.01,2013-09-27 18:11:00,
2013-09-27 14:16:00,68.7,40.7,30.27,NE,45,3.1,9.2,36,0.00,,---,0.00,VWS V14.01,2013-09-27 18:16:00,
2013-09-27 14:21:00,68.5,41.3,30.27,NE,45,10.5,10.5,37,0.00,,---,0.00,VWS V14.01,2013-09-27 18:21:00,
2013-09-27 14:26:00,68.2,40.2,30.27,NW,315,4.9,10.5,36,0.00,,---,0.00,VWS V14.01,2013-09-27 18:26:00,
2013-09-27 14:31:00,68.5,40.5,30.27,NNE,22,6.3,10.5,36,0.00,,---,0.00,VWS V14.01,2013-09-27 18:31:00,
2013-09-27 14:36:00,68.0,40.1,30.27,SE,135,3.6,10.5,36,0.00,,---,0.00,VWS V14.01,2013-09-27 18:36:00,
2013-09-27 14:41:00,68.4,41.1,30.24,NW,315,4.0,10.5,37,0.00,,---,0.00,VWS V14.01,2013-09-27 18:41:00,
2013-09-27 14:46:00,68.0,40.1,30.24,NE,45,5.4,10.5,36,0.00,,---,0.00,VWS V14.01,2013-09-27 18:46:00,
2013-09-27 14:51:00,68.4,41.1,30.24,East,90,7.6,10.5,37,0.00,,---,0.00,VWS V14.01,2013-09-27 18:51:00,
2013-09-27 14:56:00,68.5,42.0,30.24,East,90,3.6,10.5,38,0.00,,---,0.00,VWS V14.01,2013-09-27 18:56:00,
2013-09-27 15:01:00,68.2,40.9,30.24,North,0,2.7,5.8,37,0.00,,---,0.00,VWS V14.01,2013-09-27 19:01:00,
2013-09-27 15:06:00,68.9,42.3,30.24,SW,225,3.6,5.8,38,0.00,,---,0.00,VWS V14.01,2013-09-27 19:06:00,
2013-09-27 15:11:00,68.5,41.3,30.24,NW,315,2.7,6.3,37,0.00,,---,0.00,VWS V14.01,2013-09-27 19:11:00,
2013-09-27 15:16:00,68.2,40.9,30.24,NE,45,4.9,8.1,37,0.00,,---,0.00,VWS V14.01,2013-09-27 19:16:00,
2013-09-27 15:21:00,67.6,41.2,30.24,NE,45,5.4,8.1,38,0.00,,---,0.00,VWS V14.01,2013-09-27 19:21:00,
2013-09-27 15:26:00,68.5,41.3,30.24,NE,45,2.7,8.1,37,0.00,,---,0.00,VWS V14.01,2013-09-27 19:26:00,
2013-09-27 15:31:00,67.6,40.5,30.24,NE,45,4.9,8.1,37,0.00,,---,0.00,VWS V14.01,2013-09-27 19:31:00,
2013-09-27 15:36:00,67.6,40.5,30.24,WNW,292,0.0,8.1,37,0.00,,---,0.00,VWS V14.01,2013-09-27 19:36:00,
2013-09-27 15:41:00,68.4,40.4,30.24,NE,45,4.0,8.1,36,0.00,,---,0.00,VWS V14.01,2013-09-27 19:41:00,
2013-09-27 15:46:00,68.0,40.8,30.24,North,0,2.7,8.1,37,0.00,,---,0.00,VWS V14.01,2013-09-27 19:46:00,
2013-09-27 15:51:00,68.0,40.1,30.24,East,90,2.7,8.1,36,0.00,,---,0.00,VWS V14.01,2013-09-27 19:51:00,
2013-09-27 15:56:00,67.8,40.6,30.24,North,0,3.1,8.3,37,0.00,,---,0.00,VWS V14.01,2013-09-27 19:56:00,
2013-09-27 16:01:00,68.2,40.2,30.24,East,90,3.1,8.1,36,0.00,,---,0.00,VWS V14.01,2013-09-27 20:01:00,
2013-09-27 16:06:00,67.8,40.6,30.24,East,90,5.8,8.1,37,0.00,,---,0.00,VWS V14.01,2013-09-27 20:06:00,
2013-09-27 16:11:00,67.6,40.5,30.24,NNE,22,4.0,8.1,37,0.00,,---,0.00,VWS V14.01,2013-09-27 20:11:00,
2013-09-27 16:16:00,67.8,41.3,30.24,NE,45,0.0,8.1,38,0.00,,---,0.00,VWS V14.01,2013-09-27 20:16:00,
2013-09-27 16:21:00,67.6,41.2,30.24,NNE,22,0.0,8.1,38,0.00,,---,0.00,VWS V14.01,2013-09-27 20:21:00,
2013-09-27 16:26:00,67.3,40.8,30.24,NNE,22,4.0,8.1,38,0.00,,---,0.00,VWS V14.01,2013-09-27 20:26:00,
2013-09-27 16:31:00,66.7,40.3,30.24,North,0,2.2,8.1,38,0.00,,---,0.00,VWS V14.01,2013-09-27 20:31:00,
2013-09-27 16:37:00,66.7,40.3,30.24,NE,45,0.0,8.1,38,0.00,,---,0.00,VWS V14.01,2013-09-27 20:37:00,
2013-09-27 16:42:00,66.7,39.7,30.24,SSE,158,6.3,8.1,37,0.00,,---,0.00,VWS V14.01,2013-09-27 20:42:00,
2013-09-27 16:47:00,66.2,39.2,30.24,North,0,2.2,8.1,37,0.00,,---,0.00,VWS V14.01,2013-09-27 20:47:00,
2013-09-27 16:52:00,65.8,38.9,30.24,North,0,2.7,8.1,37,0.00,,---,0.00,VWS V14.01,2013-09-27 20:52:00,
2013-09-27 16:57:00,65.7,38.7,30.24,NE,45,3.1,8.1,37,0.00,,---,0.00,VWS V14.01,2013-09-27 20:57:00,
2013-09-27 17:02:00,65.5,38.5,30.24,NNW,338,0.0,4.9,37,0.00,,---,0.00,VWS V14.01,2013-09-27 21:02:00,
2013-09-27 17:07:00,65.5,38.5,30.24,NE,45,2.7,5.8,37,0.00,,---,0.00,VWS V14.01,2013-09-27 21:07:00,
2013-09-27 17:12:00,65.1,38.2,30.24,NE,45,2.7,5.8,37,0.00,,---,0.00,VWS V14.01,2013-09-27 21:12:00,
2013-09-27 17:17:00,65.1,38.2,30.24,ENE,68,4.9,5.8,37,0.00,,---,0.00,VWS V14.01,2013-09-27 21:17:00,
2013-09-27 17:22:00,65.1,38.2,30.24,ENE,68,0.0,5.8,37,0.00,,---,0.00,VWS V14.01,2013-09-27 21:22:00,
2013-09-27 17:27:00,65.1,38.2,30.24,NE,45,0.0,5.8,37,0.00,,---,0.00,VWS V14.01,2013-09-27 21:27:00,
2013-09-27 17:32:00,65.1,38.2,30.24,NNE,22,4.0,5.8,37,0.00,,---,0.00,VWS V14.01,2013-09-27 21:32:00,
2013-09-27 17:37:00,64.9,38.8,30.24,North,0,3.1,5.8,38,0.00,,---,0.00,VWS V14.01,2013-09-27 21:37:00,
2013-09-27 17:42:00,64.8,39.2,30.24,NE,45,5.4,7.6,39,0.00,,---,0.00,VWS V14.01,2013-09-27 21:42:00,
2013-09-27 17:47:00,64.8,38.6,30.24,North,0,0.0,7.6,38,0.00,,---,0.00,VWS V14.01,2013-09-27 21:47:00,
2013-09-27 17:52:00,64.4,38.9,30.24,NE,45,4.9,7.6,39,0.00,,---,0.00,VWS V14.01,2013-09-27 21:52:00,
2013-09-27 17:57:00,64.4,40.2,30.24,NE,45,3.6,7.6,41,0.00,,---,0.00,VWS V14.01,2013-09-27 21:57:00,
2013-09-27 18:02:00,64.6,40.4,30.24,NNW,338,4.5,4.5,41,0.00,,---,0.00,VWS V14.01,2013-09-27 22:02:00,
2013-09-27 18:07:00,64.4,40.2,30.24,NE,45,0.0,5.4,41,0.00,,---,0.00,VWS V14.01,2013-09-27 22:07:00,
2013-09-27 18:12:00,64.2,40.0,30.24,NE,45,4.0,5.4,41,0.00,,---,0.00,VWS V14.01,2013-09-27 22:12:00,
2013-09-27 18:17:00,64.0,40.5,30.24,SW,225,0.0,5.4,42,0.00,,---,0.00,VWS V14.01,2013-09-27 22:17:00,
2013-09-27 18:22:00,63.7,40.8,30.24,NNE,22,3.6,5.4,43,0.00,,---,0.00,VWS V14.01,2013-09-27 22:22:00,
2013-09-27 18:27:00,63.5,41.2,30.24,NNE,22,0.0,5.4,44,0.00,,---,0.00,VWS V14.01,2013-09-27 22:27:00,
2013-09-27 18:32:00,63.1,41.5,30.24,NE,45,0.0,5.4,45,0.00,,---,0.00,VWS V14.01,2013-09-27 22:32:00,
2013-09-27 18:37:00,63.0,41.3,30.24,NNE,22,0.0,5.4,45,0.00,,---,0.00,VWS V14.01,2013-09-27 22:37:00,
2013-09-27 18:42:00,62.6,41.5,30.24,NE,45,0.0,5.4,46,0.00,,---,0.00,VWS V14.01,2013-09-27 22:42:00,
2013-09-27 18:47:00,62.2,42.3,30.24,NE,45,0.0,5.4,48,0.00,,---,0.00,VWS V14.01,2013-09-27 22:47:00,
2013-09-27 18:52:00,61.9,42.5,30.24,NE,45,0.0,5.4,49,0.00,,---,0.00,VWS V14.01,2013-09-27 22:52:00,
2013-09-27 18:57:00,61.3,43.1,30.24,NE,45,0.0,5.4,51,0.00,,---,0.00,VWS V14.01,2013-09-27 22:57:00,
2013-09-27 19:02:00,60.8,43.6,30.24,NE,45,0.0,0.0,53,0.00,,---,0.00,VWS V14.01,2013-09-27 23:02:00,
2013-09-27 19:07:00,60.3,44.5,30.24,NE,45,0.0,0.0,56,0.00,,---,0.00,VWS V14.01,2013-09-27 23:07:00,
2013-09-27 19:12:00,59.9,45.1,30.24,NE,45,0.0,0.0,58,0.00,,---,0.00,VWS V14.01,2013-09-27 23:12:00,
2013-09-27 19:17:00,59.5,46.5,30.24,NE,45,0.0,0.0,62,0.00,,---,0.00,VWS V14.01,2013-09-27 23:17:00,
2013-09-27 19:22:00,59.4,47.6,30.24,East,90,0.0,0.0,65,0.00,,---,0.00,VWS V14.01,2013-09-27 23:22:00,
2013-09-27 19:27:00,59.4,48.4,30.21,NE,45,3.1,3.1,67,0.00,,---,0.00,VWS V14.01,2013-09-27 23:27:00,
2013-09-27 19:32:00,59.2,48.6,30.21,NE,45,0.0,4.0,68,0.00,,---,0.00,VWS V14.01,2013-09-27 23:32:00,
2013-09-27 19:37:00,58.6,48.9,30.21,NE,45,0.0,4.0,70,0.00,,---,0.00,VWS V14.01,2013-09-27 23:37:00,
2013-09-27 19:42:00,58.1,48.8,30.21,NE,45,0.0,4.0,71,0.00,,---,0.00,VWS V14.01,2013-09-27 23:42:00,
2013-09-27 19:47:00,57.4,48.8,30.21,NE,45,0.0,4.0,73,0.00,,---,0.00,VWS V14.01,2013-09-27 23:47:00,
2013-09-27 19:52:00,57.0,49.2,30.21,NE,45,0.0,4.0,75,0.00,,---,0.00,VWS V14.01,2013-09-27 23:52:00,
2013-09-27 19:57:00,56.7,49.9,30.21,NE,45,0.0,4.0,78,0.00,,---,0.00,VWS V14.01,2013-09-27 23:57:00,
2013-09-27 20:02:00,56.3,50.2,30.21,NE,45,0.0,0.0,80,0.00,,---,0.00,VWS V14.01,2013-09-28 00:02:00,
2013-09-27 20:07:00,55.9,50.2,30.21,NE,45,0.0,0.0,81,0.00,,---,0.00,VWS V14.01,2013-09-28 00:07:00,
2013-09-27 20:12:00,55.6,50.2,30.21,NE,45,0.0,0.0,82,0.00,,---,0.00,VWS V14.01,2013-09-28 00:12:00,
2013-09-27 20:17:00,55.4,50.3,30.21,NE,45,0.0,0.0,83,0.00,,---,0.00,VWS V14.01,2013-09-28 00:17:00,
2013-09-27 20:22:00,55.2,50.8,30.21,NE,45,0.0,0.0,85,0.00,,---,0.00,VWS V14.01,2013-09-28 00:22:00,
2013-09-27 20:27:00,55.0,50.9,30.21,NE,45,0.0,0.0,86,0.00,,---,0.00,VWS V14.01,2013-09-28 00:27:00,
2013-09-27 20:32:00,55.0,51.2,30.21,North,0,0.0,0.0,87,0.00,,---,0.00,VWS V14.01,2013-09-28 00:32:00,
2013-09-27 20:37:00,55.0,51.9,30.21,North,0,0.0,0.0,89,0.00,,---,0.00,VWS V14.01,2013-09-28 00:37:00,
2013-09-27 20:42:00,54.9,52.0,30.21,North,0,0.0,0.0,90,0.00,,---,0.00,VWS V14.01,2013-09-28 00:42:00,
2013-09-27 20:47:00,54.9,52.0,30.21,North,0,0.0,0.0,90,0.00,,---,0.00,VWS V14.01,2013-09-28 00:47:00,
2013-09-27 20:52:00,54.9,52.3,30.21,North,0,0.0,0.0,91,0.00,,---,0.00,VWS V14.01,2013-09-28 00:52:00,
2013-09-27 20:57:00,54.5,51.9,30.21,North,0,0.0,0.0,91,0.00,,---,0.00,VWS V14.01,2013-09-28 00:57:00,
2013-09-27 21:02:00,54.3,51.8,30.21,North,0,0.0,0.0,91,0.00,,---,0.00,VWS V14.01,2013-09-28 01:02:00,
2013-09-27 21:07:00,54.3,52.0,30.21,North,0,0.0,0.0,92,0.00,,---,0.00,VWS V14.01,2013-09-28 01:07:00,
2013-09-27 21:12:00,54.1,51.9,30.21,North,0,0.0,0.0,92,0.00,,---,0.00,VWS V14.01,2013-09-28 01:12:00,
2013-09-27 21:17:00,53.8,51.5,30.21,North,0,0.0,0.0,92,0.00,,---,0.00,VWS V14.01,2013-09-28 01:17:00,
2013-09-27 21:22:00,53.4,51.5,30.21,North,0,0.0,0.0,93,0.00,,---,0.00,VWS V14.01,2013-09-28 01:22:00,
2013-09-27 21:27:00,53.2,51.3,30.21,North,0,0.0,0.0,93,0.00,,---,0.00,VWS V14.01,2013-09-28 01:27:00,
2013-09-27 21:32:00,53.1,51.1,30.21,North,0,0.0,0.0,93,0.00,,---,0.00,VWS V14.01,2013-09-28 01:32:00,
2013-09-27 21:37:00,53.4,51.5,30.21,North,0,0.0,0.0,93,0.00,,---,0.00,VWS V14.01,2013-09-28 01:37:00,
2013-09-27 21:42:00,53.4,51.5,30.21,North,0,0.0,0.0,93,0.00,,---,0.00,VWS V14.01,2013-09-28 01:42:00,
2013-09-27 21:47:00,53.4,51.5,30.21,North,0,0.0,0.0,93,0.00,,---,0.00,VWS V14.01,2013-09-28 01:47:00,
2013-09-27 21:52:00,53.4,51.5,30.21,North,0,0.0,0.0,93,0.00,,---,0.00,VWS V14.01,2013-09-28 01:52:00,
2013-09-27 21:57:00,53.4,51.5,30.21,North,0,0.0,0.0,93,0.00,,---,0.00,VWS V14.01,2013-09-28 01:57:00,
2013-09-27 22:02:00,53.2,51.3,30.21,North,0,0.0,0.0,93,0.00,,---,0.00,VWS V14.01,2013-09-28 02:02:00,
2013-09-27 22:07:00,53.2,51.3,30.21,North,0,0.0,0.0,93,0.00,,---,0.00,VWS V14.01,2013-09-28 02:07:00,
2013-09-27 22:12:00,53.1,51.1,30.21,North,0,0.0,0.0,93,0.00,,---,0.00,VWS V14.01,2013-09-28 02:12:00,
2013-09-27 22:17:00,52.7,50.7,30.21,North,0,0.0,0.0,93,0.00,,---,0.00,VWS V14.01,2013-09-28 02:17:00,
2013-09-27 22:22:00,52.5,50.6,30.21,North,0,0.0,0.0,93,0.00,,---,0.00,VWS V14.01,2013-09-28 02:22:00,
2013-09-27 22:27:00,52.5,50.6,30.24,North,0,0.0,0.0,93,0.00,,---,0.00,VWS V14.01,2013-09-28 02:27:00,
2013-09-27 22:32:00,52.3,50.4,30.24,North,0,0.0,0.0,93,0.00,,---,0.00,VWS V14.01,2013-09-28 02:32:00,
2013-09-27 22:37:00,52.0,50.0,30.24,North,0,0.0,0.0,93,0.00,,---,0.00,VWS V14.01,2013-09-28 02:37:00,
2013-09-27 22:42:00,52.2,50.2,30.24,North,0,0.0,0.0,93,0.00,,---,0.00,VWS V14.01,2013-09-28 02:42:00,
2013-09-27 22:47:00,52.2,50.2,30.24,North,0,0.0,0.0,93,0.00,,---,0.00,VWS V14.01,2013-09-28 02:47:00,
2013-09-27 22:52:00,52.0,50.0,30.24,North,0,0.0,0.0,93,0.00,,---,0.00,VWS V14.01,2013-09-28 02:52:00,
2013-09-27 22:57:00,52.2,50.2,30.24,North,0,0.0,0.0,93,0.00,,---,0.00,VWS V14.01,2013-09-28 02:57:00,
2013-09-27 23:02:00,52.2,50.2,30.24,North,0,0.0,0.0,93,0.00,,---,0.00,VWS V14.01,2013-09-28 03:02:00,
2013-09-27 23:07:00,52.3,50.7,30.24,North,0,0.0,0.0,94,0.00,,---,0.00,VWS V14.01,2013-09-28 03:07:00,
2013-09-27 23:12:00,52.2,50.5,30.21,North,0,0.0,0.0,94,0.00,,---,0.00,VWS V14.01,2013-09-28 03:12:00,
2013-09-27 23:17:00,52.0,50.3,30.21,North,0,0.0,0.0,94,0.00,,---,0.00,VWS V14.01,2013-09-28 03:17:00,
2013-09-27 23:22:00,52.0,50.3,30.21,North,0,0.0,0.0,94,0.00,,---,0.00,VWS V14.01,2013-09-28 03:22:00,
2013-09-27 23:27:00,51.8,50.1,30.21,North,0,0.0,0.0,94,0.00,,---,0.00,VWS V14.01,2013-09-28 03:27:00,
2013-09-27 23:32:00,52.0,50.3,30.21,North,0,0.0,0.0,94,0.00,,---,0.00,VWS V14.01,2013-09-28 03:32:00,
2013-09-27 23:37:00,52.0,50.3,30.21,North,0,0.0,0.0,94,0.00,,---,0.00,VWS V14.01,2013-09-28 03:37:00,
2013-09-27 23:43:00,52.0,50.3,30.21,North,0,0.0,0.0,94,0.00,,---,0.00,VWS V14.01,2013-09-28 03:43:00,
2013-09-27 23:48:00,52.0,50.3,30.21,North,0,0.0,0.0,94,0.00,,---,0.00,VWS V14.01,2013-09-28 03:48:00,
2013-09-27 23:52:00,52.0,50.3,30.21,North,0,0.0,0.0,94,0.00,,---,0.00,VWS V14.01,2013-09-28 03:52:00,
2013-09-27 23:57:00,51.8,50.1,30.21,North,0,0.0,0.0,94,0.00,,---,0.00,VWS V14.01,2013-09-28 03:57:00,